sat.trackr.live / text

‹ back to catalog

GAOFEN-9 02

NORAD 45625 · 2020-034B

PAYLOAD ACTIVE UNKNOWN

§ Identity

Operator
Country
PRC
Launch date
2020-05-31
Launch site
JSC
Launch vehicle
Mass (kg)
RCS (m²)

External: N2YO · Heavens-Above · Gunter

§ Orbital elements

Epoch: 2026-09-20T04:14:54.781152Z

Period
94.31 min
Inclination
97.5873°
Eccentricity
0.0013739
Mean motion
15.26816278 rev/d
Perigee alt
475.9 km
Apogee alt
494.8 km
Semi-major
6,863.5 km
B*
1.3658e-4
RAAN
61.8915°
Arg perigee
93.8152°
Mean anomaly
266.4657°
Rev number
35,065

§ Raw data

GAOFEN-9 021 45625U 20034B   26263.17702293  .00003531  00000+0  13658-3 0  99982 45625  97.5873  61.8915 0013739  93.8152 266.4657 15.26816278350655

JSON: /api/v1/satellites/45625 · /tle

For live sub-satellite position, see the globe view (requires WebGL).

§ Visibility from observer

Set your observer location to see the next 7 days of passes ≥ 10°. The values pass through the URL so the page stays shareable.

No JS? Fill the form by hand. The geolocation button needs JavaScript.